sat.trackr.live / text

‹ back to catalog

STARLINK-2047

NORAD 47355 · 2021-005G

PAYLOAD ACTIVE UNKNOWN

§ Identity

Operator
Country
US
Launch date
2021-01-20
Launch site
AFETR
Launch vehicle
Mass (kg)
RCS (m²)

Purposes: comms

External: N2YO · Heavens-Above · Gunter

§ Orbital elements

Epoch: 2026-09-08T06:17:27.073824Z

Period
94.01 min
Inclination
53.1624°
Eccentricity
0.0001710
Mean motion
15.31713142 rev/d
Perigee alt
469.5 km
Apogee alt
471.9 km
Semi-major
6,848.8 km
B*
7.5703e-5
RAAN
241.3514°
Arg perigee
86.6067°
Mean anomaly
273.5130°
Rev number
31,172

§ Raw data

STARLINK-20471 47355U 21005G   26251.26211891  .00001985  00000+0  75703-4 0  99962 47355  53.1624 241.3514 0001710  86.6067 273.5130 15.31713142311722

JSON: /api/v1/satellites/47355 · /tle

For live sub-satellite position, see the globe view (requires WebGL).

§ Visibility from observer

Set your observer location to see the next 7 days of passes ≥ 10°. The values pass through the URL so the page stays shareable.

No JS? Fill the form by hand. The geolocation button needs JavaScript.